GFSMA_con_mlcape_096.txt.gz
CAPE
412 607 616 578 465 628 344 348 568 841 496 77 492 1094 993 623 288 166 18 237 837 1044 709 799 733 767 866 1046 1019 950 741 739 640 668 747 853 837 740 876 983 884 802 714
536 575 570 631 638 701 679 363 661 909 233 53 308 447 610 503 141 36 33 142 792 1014 1029 936 798 797 802 797 765 812 733 675 789 962 1072 1049 1048 1139 1203 1139 1200 1085 831
424 360 575 615 834 1063 849 560 704 550 321 253 336 359 362 397 287 145 74 96 189 364 832 875 821 843 1004 880 837 985 1026 1085 1184 1222 1317 1395 1475 1447 1509 1558 1521 1365 1058
481 289 383 436 582 674 569 724 588 644 441 474 443 354 322 314 345 305 257 151 282 326 343 291 575 895 905 1020 1186 1315 1370 1400 1407 1424 1632 1871 2083 1981 1495 1601 1689 1632 1501
271 293 211 480 849 633 717 807 449 425 553 330 283 418 553 577 514 383 434 426 441 570 604 608 691 663 801 1247 1510 1565 1609 1628 1743 1707 1839 2075 1875 1702 1607 1571 1846 1904 1899
621 839 573 572 634 659 646 861 748 773 921 862 757 636 626 573 534 550 509 649 710 752 756 722 752 807 778 975 1139 1324 1556 1732 1991 1920 1872 1852 1560 1542 1752 1967 1962 2044 2251
760 725 711 652 532 427 701 492 648 561 431 481 442 465 189 159 152 565 613 598 671 690 662 721 765 809 817 867 910 973 1258 1555 1873 1979 1889 1837 1545 1543 2086 2400 2317 2322 2480
877 683 666 349 468 795 826 894 629 517 518 622 569 255 336 200 489 489 375 550 653 665 635 588 621 657 760 843 862 931 1069 1211 1620 1787 1814 1799 1681 1556 2413 2641 2258 2330 2144
687 592 621 388 542 551 521 563 973 464 789 723 645 493 523 528 527 215 331 380 495 572 567 435 361 511 623 651 603 689 914 1304 1461 1687 1733 1856 1780 1465 2508 2454 1740 1733 1909
687 863 866 642 555 388 390 398 1003 635 874 790 798 652 603 700 1016 642 359 297 220 210 213 127 275 388 341 361 397 637 927 1351 1562 2054 2027 1902 1847 1675 2143 2317 1547 1118 617
640 662 724 746 619 532 124 234 941 987 1050 838 621 826 721 760 827 866 640 712 509 31 35 103 188 301 624 838 710 821 1196 1354 1547 1969 2129 2123 2010 1862 1613 2260 1680 961 140
564 715 863 692 584 548 315 267 938 951 880 658 575 473 453 717 1057 1205 844 660 760 568 807 567 371 488 758 1358 1387 1295 1414 1470 1365 1445 1878 1972 1970 1831 1448 1769 1680 1059 208
384 443 689 790 605 545 421 291 691 791 859 873 664 445 234 307 649 1005 864 511 677 705 1095 1461 1262 644 1678 1536 1306 1251 1386 1208 1055 1328 1550 985 1078 1521 1378 1207 1477 1185 379
426 421 602 902 797 716 459 257 450 871 763 787 825 717 532 573 424 724 940 966 717 689 661 1319 1558 1524 1158 1172 1536 1179 1218 1228 1291 1479 695 486 507 765 1167 937 1132 1052 714
383 376 607 762 791 773 786 558 433 734 991 958 821 758 957 808 897 986 724 819 964 672 656 882 1537 1336 1414 1442 1166 1244 1310 1408 1426 829 598 350 281 442 791 828 804 855 706
403 398 317 330 675 698 777 725 549 799 887 776 852 946 978 965 1064 1097 1020 713 653 738 769 615 990 1334 1275 1107 914 1091 1163 1021 727 400 45 52 322 393 452 625 559 603 540
478 342 327 326 459 589 794 903 807 764 789 825 837 867 866 821 713 765 895 1112 774 704 591 752 791 849 625 589 622 1008 1062 1200 1172 430 55 30 204 95 404 385 482 318 319
366 282 339 509 543 555 603 730 851 877 623 680 713 702 622 820 797 636 679 918 938 842 774 517 546 635 547 604 839 1016 1266 1202 853 332 175 77 120 211 200 171 114 217 184
478 380 291 411 320 249 334 496 623 733 743 793 669 788 765 722 819 842 923 887 727 856 896 988 1012 811 827 769 791 713 619 579 699 571 216 96 228 354 280 219 141 61 7
563 570 475 559 501 335 220 159 248 545 687 814 788 766 842 815 704 811 798 874 865 924 1003 1032 1023 980 793 895 794 765 880 909 864 845 386 190 452 353 326 190 106 104 52
405 652 736 619 514 360 388 479 437 651 890 946 1035 1078 1016 998 991 997 1055 1028 961 952 991 957 992 988 909 949 1087 956 818 686 653 468 464 750 620 751 466 310 161 122 67
21 112 298 498 662 694 809 820 938 1049 1125 1104 1196 1271 1207 1153 1143 987 922 856 975 1106 1143 1049 962 947 1047 879 787 780 771 796 622 619 836 711 754 701 559 478 118 33 13
0 0 2 32 138 272 180 356 542 779 1018 1012 956 899 868 929 885 912 867 876 837 775 808 1159 1151 1156 1100 1067 962 906 860 679 644 709 563 737 899 596 592 384 205 84 6
0 0 0 5 62 46 20 120 188 327 451 410 399 465 519 561 166 279 588 866 941 957 889 611 613 758 804 785 697 683 608 457 430 537 464 693 826 585 586 422 318 30 2
0 0 0 62 0 0 0 0 24 107 82 63 67 37 32 5 0 0 65 315 412 527 471 395 265 258 248 191 164 268 558 560 683 792 681 596 709 536 459 435 403 72 1
0 0 2 0 0 0 0 0 0 0 0 0 0 0 0 0 0 0 0 0 0 6 18 20 71 187 257 440 326 144 454 630 708 722 758 540 612 413 626 588 344 421 424

GFSMA_con_mlcape_099.txt.gz
CAPE
1025 1203 1195 1174 1414 1220 1053 1076 1438 1573 961 420 1116 1573 1588 1224 669 418 290 45 600 853 990 878 886 866 832 808 795 833 843 816 810 953 1169 1268 1273 1246 1329 1247 1435 1322 933
1220 1083 1197 1278 1390 1539 1354 1211 1431 1348 808 890 901 1045 1210 1107 819 518 423 538 319 739 896 1190 1122 980 1004 1272 1150 1146 1169 1151 1274 1421 1444 1561 1695 1741 1414 1474 1511 1199 1082
915 1034 1207 1308 1675 1689 1384 1422 1416 1232 1037 895 955 957 954 1061 957 808 771 710 742 490 455 755 918 910 902 1107 1361 1516 1625 1559 1641 1753 1865 1775 1915 1863 1829 1748 1636 1634 1453
1007 863 952 1232 1170 1283 1465 1485 1187 1343 1178 1164 1188 1164 995 1023 1095 1030 1031 929 985 1071 976 688 720 736 898 1351 1785 1905 1753 1734 1802 1969 2052 1908 1706 1640 1563 1577 1737 1795 1671
629 867 843 1205 1512 1267 1497 1512 1071 1230 1491 1453 1102 1034 1212 1305 1311 1038 1173 1255 1237 1337 1365 1154 853 899 1014 1209 1388 1495 1643 1786 2133 2114 2148 2057 1595 1732 2016 2090 2031 2116 1946
1079 1537 1135 1292 1211 1498 1400 1634 1474 1451 1363 1117 1010 1044 1191 1201 1288 1383 1332 1252 1476 1551 1531 1584 1598 1456 989 993 1098 1169 1357 1688 2045 2080 2118 1954 1564 1938 2384 2569 2389 2481 2197
1265 905 1356 1267 1088 1439 1328 1242 1180 1104 1308 1255 1295 935 826 637 834 1088 1379 1398 1335 1346 1351 1412 1531 1534 1486 1142 1167 1035 1133 1484 1828 1928 2007 1940 1752 2024 2605 2433 2197 2405 2327
1257 1398 1338 915 1046 1448 1441 1574 1379 1187 1370 1350 1107 886 797 793 1172 1117 1071 1035 1164 1270 1351 1302 1175 1242 1424 1431 1220 889 1092 1399 1769 2249 2086 1953 1900 1796 2627 1935 1702 2036 1955
1166 1280 1117 984 1144 1171 1189 1249 1459 1344 1417 1438 1366 1322 1105 978 1304 998 873 975 977 1160 1270 1165 922 1240 1289 1368 1389 1374 1086 1344 1595 2246 2408 2177 2027 1765 2586 1855 1218 1076 936
1192 1032 1218 1172 1158 1145 1040 1174 1610 1512 1695 1421 1654 1510 1449 1586 1606 846 1294 991 1061 723 670 747 938 1099 1541 1824 1653 1410 1079 1500 1558 1758 2240 2260 2203 1949 2264 2011 1236 453 322
891 797 866 1341 1186 1131 755 935 1690 1295 1607 1394 1280 1673 1742 1706 1830 1724 1077 1263 1233 1134 1512 1210 1020 1360 1778 2443 2139 1719 1377 1500 1311 1454 1928 2016 2094 2086 1923 2112 1619 631 126
1176 1207 1278 1165 1316 1294 992 904 1626 1732 1464 1160 1122 1120 1105 1398 1720 1852 1548 1422 1495 1699 2056 2294 1759 1576 2691 2444 1820 1592 1437 1254 1191 1383 886 813 1172 1719 1760 1937 1739 1115 356
476 751 834 816 1187 1172 1165 988 1339 1440 1617 1494 1192 1180 944 1068 1404 1714 1951 1521 1320 1509 1897 2453 1967 2444 2020 2123 2295 1290 1651 1431 1321 1403 654 516 540 788 1461 1428 1560 1312 734
881 1067 1030 918 1300 1234 1053 917 1129 1526 1394 1413 1310 1253 1244 1381 1295 1512 1455 1728 1466 1560 1571 1927 2418 2378 2066 2263 1833 1474 2010 1465 1232 599 347 280 358 513 936 1038 1129 1090 835
1012 937 1146 1038 1058 1124 1356 1101 793 1244 1605 1622 1363 1331 1536 1523 1622 1720 1787 1389 1531 1135 1145 1479 1518 2258 2105 1882 1730 1587 2107 1038 591 234 65 83 362 103 419 808 752 770 720
862 924 874 934 1153 1147 1004 826 1280 1318 1316 1496 1315 1537 1684 1541 1599 1767 1746 1727 1405 1241 900 1269 1224 1818 1822 1224 873 1303 1748 1210 1624 1149 186 109 154 114 304 370 550 484 443
832 900 803 634 674 811 1039 1303 1167 1199 845 1134 1149 1418 1527 1597 1391 1292 1454 1718 1609 1465 1037 764 1401 1241 1457 1539 1302 1560 1366 1659 1168 876 417 160 45 170 250 215 166 262 332
697 769 754 855 1011 964 1224 1342 1237 1267 972 754 736 912 880 1287 1497 1454 1247 1403 1423 1656 1305 1276 1431 1510 1700 1896 1888 2004 1437 1361 1688 1068 748 110 31 292 346 284 116 70 37
487 980 806 718 846 755 654 868 806 927 967 744 807 925 879 920 826 1287 1266 1001 1311 1502 1661 1636 1529 1703 1807 1748 1666 1707 1977 1953 1418 731 494 302 189 479 457 310 187 64 24
624 1014 997 909 1006 750 644 639 678 953 912 889 689 901 796 974 912 874 1025 1021 1069 978 1175 921 1155 1309 1474 1609 1754 1648 1347 1050 959 1088 642 677 802 849 776 649 385 76 16
798 1021 1070 1130 1100 928 687 702 797 787 740 1259 1229 1087 1191 1093 1019 912 1078 886 948 853 901 775 934 1070 1063 1031 1219 1254 1022 858 914 1119 1085 884 702 1145 1102 975 758 213 17
334 403 453 533 584 832 177 344 577 1259 1491 1538 1559 1329 1568 1123 1154 759 645 560 717 996 1125 709 961 1144 1693 1770 1344 1302 1157 1024 869 834 1237 995 1039 1197 1229 983 490 260 1
68 80 119 217 124 0 0 84 254 903 918 1223 1311 1158 1076 1049 499 701 1118 908 835 617 582 1040 1323 1552 1521 1550 1615 1551 1302 1378 1253 1087 1005 991 1107 1229 1277 1137 831 322 1
6 7 132 0 0 0 0 42 217 648 859 612 340 247 189 1 0 0 191 856 1198 1319 1499 1316 1323 1373 1521 1510 1518 1428 1371 1070 1143 1132 1363 1323 1018 1133 1219 1261 946 391 12
0 40 0 0 0 0 0 0 1 1 5 1 0 0 0 0 0 0 0 0 26 276 266 87 13 12 25 27 66 408 938 1103 1082 892 1094 1354 1050 1116 1210 1170 1188 505 17
3 3 1 0 0 0 0 0 0 0 0 0 0 0 0 0 0 0 0 0 0 0 0 0 0 0 0 65 125 246 650 984 1042 1001 1180 1263 1028 976 1005 820 1020 1092 1144

GFSMA_con_mlcape_102.txt.gz
CAPE
1356 1315 1495 1546 1502 1329 1283 1467 1627 1385 1079 1016 1180 1191 1019 1042 553 260 23 58 307 468 733 789 907 978 1012 1128 1239 1195 1266 1365 1393 1534 1710 1742 1771 1603 1563 1577 1276 1079 832
1523 1313 1470 1416 1498 1394 1438 1590 1786 1074 837 769 947 1006 1003 890 912 628 458 566 230 424 641 824 928 865 874 1093 1382 1488 1632 1760 1839 2034 1907 1840 1893 1779 1616 1690 1467 1354 1279
1719 1603 1464 1337 1623 1901 2088 1859 1474 1241 756 753 1179 1122 1016 954 704 945 764 814 951 623 498 660 776 814 1028 1414 1862 2072 2157 2128 2226 2242 2001 2014 1917 1805 1824 1778 1780 1837 1722
1719 1526 1204 1251 1672 1611 1546 1262 1101 818 1029 963 1140 1107 996 863 1117 1122 1015 1182 1335 1244 1152 908 838 959 1090 1363 1729 1778 1786 2022 2294 2305 2201 2200 1817 2044 2260 2359 2249 2138 1826
1404 1367 1391 1726 1803 1463 1406 1062 1050 1044 931 945 807 884 904 1063 1087 830 1229 1383 1274 1457 1455 1210 1072 1138 1098 1292 1430 1450 1489 1782 2128 2280 2208 2107 1784 2249 2568 2622 2513 2405 2108
1441 1335 1439 1748 1647 1368 1337 1467 1937 1389 825 837 708 686 736 966 1113 1191 1107 1128 1297 1412 1272 1809 2076 2004 1449 1163 1236 1190 1419 1820 1995 2200 2161 2060 1865 2357 2546 2217 2514 2392 2240
1350 1459 1425 1648 1539 1470 1933 1784 1352 1273 729 1036 803 610 615 882 938 1052 1045 1039 1059 1084 1364 1757 2022 1948 1892 1736 1623 1039 1438 1683 2088 2483 2334 2060 1992 2123 2511 1710 2090 2187 2141
1227 1369 1696 1359 1626 1433 2032 2213 1993 964 1041 1611 744 819 618 643 807 777 899 834 967 1189 1450 1655 1739 1952 2178 2163 1827 1437 1223 1441 1811 2388 2580 2306 2105 1795 2520 1583 1275 1166 1122
1250 1294 1590 1543 1715 1371 1289 1784 1714 1990 920 1581 1984 1467 728 905 729 629 814 743 949 1231 1371 1368 1431 1775 2282 2359 2200 1765 1320 1521 1635 1896 2409 2469 2320 1933 2326 1753 1047 572 597
1077 1056 1522 1572 1805 1332 1599 1604 1662 1899 1960 1124 1463 1879 2315 2511 1083 708 606 776 696 737 1211 1228 1300 1696 2318 2279 2294 1603 1391 1432 1396 1508 2075 2169 2353 2196 2096 1962 1198 391 318
1094 1290 1285 1818 1723 1300 1453 1631 1800 1650 1656 1324 1337 1563 2125 2101 2212 1153 798 872 553 886 1473 1540 1496 1716 2314 2590 2201 1745 1446 1447 1343 1479 934 1072 1654 2084 2191 2039 1659 688 254
738 801 927 1186 1524 1521 1727 1196 1408 1363 1792 1769 1372 1296 1248 1439 1580 1423 1174 1295 1237 1493 1806 2207 2240 1961 2370 2267 2189 1362 1831 1665 1476 1465 704 573 722 1295 1951 2169 1866 1365 606
760 747 935 970 1029 1238 1637 1312 1398 1368 1564 1670 1800 1311 1106 1143 1463 1763 1645 1495 1350 1486 1791 2215 2257 2336 2125 2289 1937 1192 1941 1242 1024 469 215 286 531 740 1340 1735 1776 1650 1125
771 1292 891 1083 1252 1058 1479 1693 1416 1041 1311 1100 1567 1797 1158 1243 1171 1206 1435 1448 1251 1342 1476 1767 2038 2034 1859 1949 1697 1325 1382 1404 712 311 156 86 385 206 651 1147 1233 1286 1146
1185 1106 1300 1092 1249 1192 1494 1544 1066 1467 1733 1690 1301 1397 1219 1035 1162 1238 1259 1136 1185 845 895 1718 1207 1439 1529 1119 1053 1176 1135 1276 1117 1407 1239 221 116 141 393 527 718 766 811
1037 1417 1543 1450 1086 1114 1024 1263 1090 1169 1558 1191 1062 1441 1456 931 1181 1036 1054 951 967 897 750 621 776 1226 1665 1551 954 1117 1032 953 1230 1492 712 593 163 77 288 284 228 344 526
787 1228 1283 1586 1323 1076 1231 1602 1493 1230 1422 1089 1216 1395 1577 2026 1049 772 722 781 788 796 699 330 491 512 1523 1659 1692 1846 1100 646 553 764 726 562 73 46 356 342 216 87 70
987 924 1019 1176 1172 925 1055 1472 1228 865 1139 910 876 980 1204 1024 1710 1467 1062 1058 903 1149 927 728 859 867 914 1313 1494 1927 1506 870 948 682 297 473 166 85 419 437 383 170 66
711 857 1092 1147 783 1183 782 1000 1115 1199 1104 969 809 910 883 955 1113 899 1366 1137 729 1066 1189 1149 804 615 808 1006 992 1009 1119 1055 621 230 217 166 334 450 718 746 735 398 31
569 583 774 1181 955 836 991 1012 1078 1165 1096 919 1103 932 1015 1003 1092 1224 1071 1237 1096 1029 845 964 694 540 562 687 892 601 382 375 410 404 504 540 594 568 779 866 807 575 64
651 931 888 1235 1274 1074 737 1443 1471 1401 1431 1234 1270 1141 1034 1138 855 787 988 1134 1165 997 833 743 596 539 466 1259 731 631 410 376 476 437 372 709 488 527 711 694 837 494 231
1307 1364 1448 1417 1297 1000 63 201 469 1336 1553 1259 1212 1409 1144 1099 1282 1166 980 792 783 999 1264 1129 885 622 917 986 707 606 814 782 862 682 1106 855 758 713 815 795 731 660 313
804 823 873 884 185 25 0 32 156 1019 1439 1130 1336 1454 1303 480 477 521 687 712 933 905 817 1329 1286 1348 1540 1393 1499 1799 1423 1563 1407 1272 1236 967 881 811 731 826 998 834 331
315 436 256 47 0 0 0 95 337 1179 788 393 299 204 111 0 0 0 170 598 1031 1216 1174 1376 1511 1466 1489 1173 1011 1066 1115 1394 1511 1382 1284 990 845 849 798 878 1092 935 384
199 281 45 0 0 0 0 0 227 198 138 19 0 0 0 0 0 0 0 0 3 40 16 0 0 0 0 0 0 205 610 905 1211 1239 1209 1286 1420 1408 1137 724 907 880 662
45 0 0 0 0 0 0 0 0 10 0 0 0 0 0 0 0 0 0 0 0 0 0 0 0 0 0 0 0 113 833 781 852 1061 1175 983 1142 1187 1119 1031 977 1040 1161

GFSMA_con_mlcape_105.txt.gz
CAPE
1006 1352 1527 1283 1174 1110 891 1086 888 909 973 914 694 782 550 494 281 0 0 39 214 252 455 647 856 960 964 1128 1410 1695 1820 1981 2070 2155 2183 2161 2008 1804 1587 1465 1438 1269 1070
1482 1173 1429 991 1183 1386 1128 1195 1389 681 639 486 765 789 689 499 697 389 285 411 280 302 463 730 916 924 1074 1391 1756 2066 2120 2327 2497 2380 2227 2206 2071 1871 2054 2030 1887 1642 1579
1729 1352 952 1281 1251 1285 1808 1243 922 1022 538 494 881 902 644 700 779 1023 963 975 711 579 670 806 872 931 1063 1343 1773 1911 2009 2090 2311 2468 2379 2316 2014 2271 2486 2524 2157 2040 1730
1595 1457 1252 1012 1063 1361 1057 787 771 536 686 759 940 996 673 651 979 1223 1256 1423 1465 1188 954 910 929 975 1140 1389 1624 1663 1729 1890 2142 2366 2320 2250 1911 2407 2699 2673 2583 2304 1930
1695 1796 1579 1360 1878 1191 915 842 322 1014 612 767 778 854 916 799 1124 1041 1447 1395 1281 1503 1515 1162 1366 1320 1277 1356 1328 1391 1718 2023 2163 2277 2269 2231 1944 2436 2490 2328 2626 2424 2158
1550 1860 1415 1431 2179 1388 1118 1089 1526 733 784 835 925 732 940 944 1064 1176 1177 1146 1311 1563 1351 2224 2517 2194 1732 1691 1323 1336 1659 1827 2128 2600 2539 2173 2058 2263 2213 1848 2248 2249 2382
1525 1817 1654 1482 1707 1542 1793 1636 1656 1218 660 643 1204 620 662 915 1170 1076 979 963 955 1114 1414 1930 2029 2182 2279 2009 1629 1284 1466 1646 1906 2292 2734 2451 2159 1864 2346 1418 1543 1435 1864
1566 1364 1856 1576 1616 1443 1812 2137 1907 1624 611 604 1130 1025 722 859 933 891 900 768 935 1089 1414 1825 1827 2336 2397 2328 2128 1356 1423 1579 1702 1890 2422 2679 2383 1986 2466 1420 962 727 1037
1316 1740 1737 2089 1489 1793 1578 2060 1500 1659 825 653 1797 2043 1135 1246 774 634 709 839 869 1274 1352 1379 1583 1986 2451 2726 2355 1978 1310 1367 1484 1596 2030 2158 2472 2305 2166 1781 880 494 629
1200 1307 1505 1710 1870 1859 1875 1724 1597 2405 1820 644 721 1099 2196 2034 2270 746 472 796 718 883 1154 1194 1208 1965 2152 2110 2241 1481 1461 1682 1532 1660 1080 1172 1610 2194 2271 2169 1305 405 286
1084 1078 1416 1624 1750 1630 1496 2013 1677 2023 1718 1656 1035 967 1135 1347 881 1273 993 995 518 701 1420 1454 1339 1534 2363 2515 2234 1625 1786 1450 1596 1361 863 792 848 1266 2091 2253 1841 924 306
1024 1054 1213 1453 1500 1545 1529 1324 1740 1634 2101 2211 1805 1131 950 1239 1617 1583 1185 842 1183 1399 1325 1803 1772 1642 1907 1890 1865 1324 1726 1259 852 414 205 287 580 608 1257 2203 2181 1786 889
515 925 1175 1221 1166 1440 1848 1356 1635 2109 1526 1786 2129 1836 582 735 848 1185 1191 1286 968 1088 1363 1383 671 1499 1578 1446 1860 1530 1355 1221 1036 572 430 336 306 307 483 1435 1850 1878 1715
656 1229 1200 1081 1118 1588 1471 1695 1389 967 1283 1312 1634 2003 1722 812 769 873 1028 946 931 1145 726 1004 891 1706 1574 1499 1363 1068 1002 1050 1204 779 1141 1055 407 247 330 560 879 1116 1233
991 1501 974 1064 1132 1118 1355 1594 1261 1628 1710 1681 1159 1389 1269 980 591 778 834 801 841 596 617 1886 1134 1369 1431 1423 1183 1281 1268 1049 495 776 1264 622 623 174 179 296 376 415 632
825 1167 1188 1333 1388 1390 1453 1501 1061 1214 1361 1316 698 957 1623 823 1276 782 656 581 566 621 602 475 460 722 1654 1569 1025 1377 1428 1052 785 728 998 462 282 35 119 334 337 270 177
791 1104 1320 1319 1166 1513 1483 1445 1735 1294 1523 1248 1160 1244 962 1221 1221 907 1000 717 385 389 522 624 548 421 919 1490 1324 1601 1103 1404 683 663 643 263 306 32 49 238 351 366 196
1045 1084 1434 1252 971 1258 1329 1519 1732 901 982 1078 1044 1071 1112 788 1422 1567 1190 1161 665 819 555 744 643 1008 683 1185 1083 1627 924 848 698 604 317 129 260 162 137 301 602 567 415
892 1041 1029 1014 1130 1206 1064 1354 1518 1056 1049 854 792 938 1088 1104 1162 1271 1515 1138 709 1215 1158 1020 539 408 575 696 1048 947 1210 1231 505 232 144 95 220 304 314 368 587 668 281
858 818 968 1037 1160 1102 1237 1037 1211 1314 1296 1063 1070 1088 999 996 1193 1362 1322 1415 1289 1089 686 913 752 657 592 1293 1407 490 429 278 455 444 416 383 451 458 341 314 499 621 362
626 711 761 1040 962 952 565 913 1087 1326 1519 1223 969 1130 916 941 898 849 808 1094 1583 1133 914 892 666 464 570 1282 590 593 597 469 736 723 610 627 541 528 524 313 797 640 441
669 735 818 1025 1038 742 0 130 377 1344 1317 1546 1431 1083 825 1185 1284 1132 1036 799 897 1239 1512 1277 1012 626 1065 1107 1162 1276 1612 1185 1184 1230 1737 1286 1122 587 565 734 846 806 596
901 1040 958 1069 940 282 0 0 170 629 1193 1555 1383 1455 1427 599 841 975 830 671 635 622 665 1042 1467 1384 1328 1531 1598 1639 1379 1441 1407 1473 1566 1408 1573 1505 1352 883 754 725 822
599 585 526 216 43 0 0 0 39 1013 1385 1349 1271 1058 882 387 0 0 14 510 686 864 988 1128 1375 790 480 280 109 326 602 891 1317 1417 1637 1185 1491 1344 1516 1696 838 739 859
218 177 116 58 0 0 0 0 0 893 464 272 53 19 19 0 0 0 1 8 10 27 0 0 0 0 0 0 0 0 188 553 746 878 1187 834 1166 1268 1330 1302 1111 855 734
17 27 0 0 0 0 0 0 0 253 303 46 0 0 0 0 0 0 0 0 0 0 0 0 0 0 0 6 0 2 263 259 242 315 622 296 353 569 562 886 1246 1360 1320

GFSMA_con_mlcape_108.txt.gz
CAPE
742 1083 0 270 1449 1009 1410 1599 1431 1024 911 873 831 547 497 556 0 0 0 0 62 156 248 419 721 926 1030 1326 1711 2070 2225 2339 2462 2573 2430 2093 2018 1856 1959 1662 1493 1490 1380
1173 1023 694 1073 752 1966 1130 825 1255 1178 745 607 854 940 648 627 718 117 84 34 93 111 261 523 855 1075 1224 1462 1659 1942 2074 2166 2269 2450 2460 2366 2068 2490 2632 2430 1851 1577 1604
1539 1408 962 931 1319 489 974 1216 1138 1011 873 889 863 1069 745 811 860 869 666 367 342 475 604 883 1055 1046 1054 1279 1544 1740 1822 1929 2130 2339 2388 2393 2089 2599 2713 2738 2426 1950 1764
1537 1234 1351 918 903 1914 1919 1198 1512 1402 727 1142 1164 1109 962 863 1158 1295 1387 1323 1066 855 909 952 1012 1026 1101 1293 1499 1534 1818 2076 2256 2373 2367 2323 2071 2632 2268 2630 2458 2039 1826
1600 1323 1424 970 1520 1888 1030 1081 854 783 870 949 899 1005 1064 884 1147 1320 1456 1454 1520 1583 1356 1006 1392 1243 1342 1558 1406 1438 1695 1846 2044 2584 2664 2320 2104 2497 1964 2169 2071 2145 2019
1323 1854 1805 1478 1996 1535 1037 1548 841 698 1467 875 955 995 1203 1134 1259 1139 1390 1216 1200 1474 1774 2144 1881 1836 1571 1820 1474 1290 1466 1709 1876 2129 2685 2543 2167 1943 2032 1530 1628 1477 2077
1349 1878 1742 1640 68 807 1575 1982 2082 1975 1115 1062 1660 816 702 1026 1217 1307 1097 1146 876 1486 1687 1748 2502 2487 1962 1954 1685 1221 1372 1512 1678 1841 2363 2631 2342 1941 2255 1271 939 886 1529
1500 1730 1809 1477 1009 1838 1632 2091 1950 2215 1245 723 1252 2073 878 992 994 975 947 859 715 925 1352 1669 1905 1947 2341 2109 1667 1297 1300 1513 1620 1866 1529 1792 2356 2199 2179 1380 758 684 1277
1287 1272 1789 1458 1365 1494 1763 2145 2074 2346 1816 817 898 2205 2074 1580 1023 594 448 821 305 1066 1297 1115 1640 1907 2098 2233 1988 1523 1436 1525 1554 1564 1153 1123 1357 2144 2164 1762 785 471 752
1202 1064 1338 1593 1661 872 1175 2086 1931 1979 2363 1937 1015 959 1744 745 433 391 472 543 612 1078 792 685 1204 1761 2007 2326 1398 1270 1477 1554 1394 1083 801 717 931 1290 2121 2215 1368 402 261
1170 1185 1245 1301 1670 1609 1494 1975 1855 1800 2339 2251 2072 1725 808 1940 760 784 73 143 646 852 1001 927 848 1815 1698 1050 1454 1240 1368 1436 1052 562 431 331 509 585 1234 2179 2024 1139 372
957 1237 1047 1590 1583 1596 1442 1268 1922 1608 1680 2005 1903 2397 1548 593 482 113 215 47 523 511 236 300 114 0 334 182 400 1241 1169 1163 960 730 586 859 718 485 564 1469 2216 2122 1366
893 1098 1384 1108 1251 1108 1640 1236 1795 1491 1565 1367 1837 1814 2180 511 20 430 504 385 13 410 256 57 0 0 19 594 1044 852 1042 1016 981 757 586 1083 714 467 306 544 1087 1691 1938
253 983 1112 1163 1189 1593 1465 1461 1529 1122 1319 1436 1663 1197 1095 1149 930 608 789 607 908 1000 44 201 183 57 783 1246 881 1294 1455 1205 1036 754 558 954 560 325 112 298 441 566 820
251 788 1074 1057 1161 1043 1329 1492 1335 1262 1162 849 1109 1256 892 1296 1102 1351 293 583 780 690 661 702 921 193 998 725 1119 1261 1423 1133 828 970 876 742 478 147 1 114 230 315 335
284 157 471 1029 1111 1099 872 1150 1063 1093 1026 1218 1330 1198 1620 1255 1114 1367 1165 1046 569 289 539 790 548 1082 955 858 1160 967 1380 857 1047 1163 439 554 409 197 36 57 182 394 296
604 152 716 1355 1230 1197 1277 1451 1197 881 1141 1087 1209 1110 1027 964 1181 1042 875 887 491 588 325 601 373 683 939 963 1453 1274 1409 1022 1003 559 574 436 315 215 134 119 227 494 561
1099 899 957 1228 1083 1194 1247 1371 1204 1115 940 782 914 1014 1001 1115 1135 1506 1337 1401 1051 1178 1143 582 1232 479 305 785 1814 1109 1371 830 955 921 400 370 257 177 259 207 191 428 598
907 971 1098 823 1013 1074 1082 1459 1292 1084 1103 1015 898 794 850 1046 930 826 1120 1254 1166 1223 1139 1105 944 752 540 878 832 1055 318 1336 1410 444 576 281 138 213 259 284 179 240 596
733 866 807 759 944 819 1178 1141 1332 1118 1109 1248 1068 847 621 833 972 930 1011 919 1100 987 795 973 911 905 791 1192 810 1296 1171 1659 1198 1514 1238 1790 914 755 518 392 120 146 542
741 608 794 769 968 502 110 269 1081 1083 894 933 1464 1414 1126 902 565 549 694 609 881 1209 1231 1116 968 879 997 1059 1288 1574 1542 1434 1431 1324 1662 1578 1649 1848 1674 1072 455 421 564
563 585 583 659 684 22 0 0 96 917 883 1045 550 684 992 917 967 883 855 712 628 563 695 870 1109 1170 1250 1424 1303 1363 1227 1362 1097 1482 1434 1305 1219 1139 1563 1187 831 776 579
384 579 737 890 371 0 0 0 0 263 623 967 1237 1123 914 202 19 103 294 412 722 730 549 721 945 990 1089 1045 660 361 326 336 706 1080 1327 1049 1237 1642 1478 1590 1314 695 690
235 390 228 71 14 0 0 0 0 135 497 890 810 1001 216 0 0 0 14 287 264 351 213 126 26 6 0 0 0 0 15 313 842 836 672 726 730 514 470 1021 1087 670 625
90 29 1 0 0 0 0 0 0 1169 513 44 0 0 0 0 0 0 0 0 0 0 0 0 0 0 0 0 0 0 129 236 295 68 228 152 239 383 722 789 915 714 672
7 0 0 0 0 0 0 0 0 269 196 0 0 0 0 0 0 0 0 0 0 0 0 0 0 0 48 4 0 0 76 6 1 0 0 0 244 238 241 637 298 452 901

GFSMA_con_mlcape_111.txt.gz
CAPE
152 0 8 273 0 806 789 799 873 1146 1015 861 397 276 146 0 0 0 0 0 0 15 154 325 595 934 1139 1326 1656 1988 2133 2348 2243 2312 2480 2369 2240 2563 2578 1985 1728 1359 1218
718 261 13 394 302 465 853 844 816 953 876 575 645 291 331 0 0 0 0 0 0 35 191 477 807 1048 1133 1281 1459 1803 2005 1974 2097 2347 2394 2246 2295 2396 2459 2533 2152 1792 1349
1169 806 848 768 731 1364 1388 1462 1491 1450 416 387 547 623 341 514 0 0 0 0 64 249 458 732 914 1032 1043 1069 1399 1656 1850 2054 2269 2339 2370 2282 2047 2269 2094 2298 2009 1828 1510
1572 876 1129 963 1260 1370 1244 1146 1146 1344 558 610 688 504 510 582 696 419 290 113 183 404 730 971 1022 1075 1138 1247 1524 1592 1661 1804 2025 2466 2489 2235 1951 2283 1600 1949 1806 1721 1615
1695 801 1187 1621 1669 1451 732 866 980 785 643 811 929 798 600 568 818 1004 872 948 671 724 657 987 1316 1176 1298 1704 1800 1530 1536 1613 1797 2162 2526 2235 1985 2328 1347 1386 1477 1896 1776
1460 1421 1905 799 625 654 1518 1935 1426 1444 1533 1113 902 805 692 642 776 1014 953 1298 1105 1152 1049 1233 1296 1672 1516 1574 1846 1448 1438 1447 1643 2078 2193 2286 2040 2089 1502 880 582 1376 1753
1204 1608 1589 0 229 701 1494 1890 1656 1794 1466 908 1135 1259 816 773 908 885 967 1048 748 1155 1411 1537 1920 1772 1971 1594 1618 1223 1434 1534 1591 1391 1406 1966 2098 1871 1707 944 515 1005 1367
1103 1429 1384 952 782 1380 1705 1727 1869 2167 1748 791 1116 1847 544 424 628 927 867 982 869 862 1233 1415 1695 1756 2114 1599 1138 945 1427 1375 1503 1125 991 1011 1603 1854 1857 1109 511 746 1150
869 1105 1557 1077 974 1042 1214 1911 2023 2022 1820 1871 1264 1568 1404 1310 962 423 468 368 291 514 390 325 392 1297 1380 1458 1340 1557 1343 1412 1198 840 557 635 800 1560 1909 1425 594 441 710
1028 876 1260 1475 1134 1007 1070 1651 1727 1636 1896 1805 1683 1618 473 234 72 259 444 79 219 256 314 265 30 11 301 0 733 515 1108 1211 885 593 432 644 599 764 1631 1838 1143 328 251
1080 939 885 998 1321 1216 1029 1521 1823 1384 1589 1720 1789 1560 681 311 371 0 3 1 0 185 209 34 2 0 0 65 379 539 1043 829 730 639 517 851 695 588 1070 1800 1662 1085 354
768 888 1024 1198 1041 1020 1148 1025 1532 1141 1398 1310 1545 1475 832 287 222 45 0 0 8 105 1 0 0 0 0 8 434 699 1081 711 734 673 474 845 655 486 525 1172 1800 1813 1455
417 453 700 958 1117 871 1049 1314 1274 874 1275 1075 1306 1274 891 157 6 0 0 83 91 247 112 51 10 1 4 48 202 454 914 808 906 843 670 577 720 334 190 376 668 1129 1604
133 288 598 841 782 1227 1021 1445 886 1329 999 943 896 880 1278 1253 633 786 564 213 26 240 347 177 4 121 347 273 501 990 1262 1090 776 789 969 777 615 246 36 159 240 360 451
14 359 496 670 822 1024 1003 1116 1125 853 991 703 660 1134 1132 1278 933 1015 1114 955 827 364 379 209 485 414 246 154 178 715 794 1118 970 935 899 467 439 264 88 34 115 253 321
0 71 424 570 922 730 477 971 840 674 1065 954 1043 861 1056 782 673 936 819 1212 896 528 243 635 465 730 582 703 945 974 986 1110 1021 846 729 362 336 271 183 63 54 204 423
63 142 76 468 950 728 866 976 902 533 851 657 895 608 700 990 993 913 1202 1215 899 1072 543 532 623 618 515 633 987 1440 1301 1491 1013 898 522 419 376 270 151 138 54 83 394
157 82 9 656 770 792 1010 707 734 1031 729 583 630 726 697 705 865 673 872 919 718 929 636 428 525 632 749 575 187 566 1372 1622 1195 1191 1196 1299 369 321 198 391 244 79 156
615 666 756 615 774 912 837 836 1108 684 663 959 748 751 652 620 769 473 594 830 575 717 512 632 575 752 794 620 450 774 964 1114 1197 1022 1075 1436 1152 1135 925 891 540 180 76
506 422 805 744 493 592 356 849 962 906 652 790 973 962 621 469 597 626 638 772 680 482 724 696 554 475 804 1227 999 797 623 950 793 848 1255 1036 1024 1136 1372 1109 245 113 101
657 508 666 680 182 60 17 69 294 858 768 468 448 514 732 697 459 425 435 427 355 256 262 294 332 451 553 624 807 863 436 507 173 978 874 1008 950 1309 862 1394 892 309 289
352 354 447 427 0 0 0 0 20 340 687 573 494 531 145 101 154 296 314 421 385 545 547 581 620 620 694 762 280 0 0 24 262 614 730 624 710 738 213 1054 772 471 479
147 117 172 25 0 0 0 0 0 65 349 552 497 401 57 0 0 0 10 221 201 121 174 298 214 20 0 0 0 0 2 149 265 255 202 327 238 219 271 835 360 575 544
96 100 25 0 0 0 0 0 0 34 50 17 1 0 0 0 0 0 0 0 0 0 0 0 0 0 0 0 0 0 0 24 36 31 0 3 183 9 114 386 112 95 500
4 0 0 0 0 0 0 0 43 79 17 0 0 0 0 0 0 0 0 0 0 0 0 0 0 0 0 0 0 0 0 0 0 0 0 0 1 0 50 169 0 0 0
0 0 0 0 0 0 0 0 6 74 0 0 0 0 0 0 0 0 0 0 0 0 0 0 0 0 0 0 0 0 0 0 0 0 0 0 0 0 0 0 0 0 0

GFSMA_con_mlcape_114.txt.gz
CAPE
0 0 150 27 235 63 673 469 620 741 1001 1195 988 682 928 25 0 0 0 14 19 95 345 518 705 1018 1423 1630 1908 2225 2350 2399 2352 2621 2449 2233 2446 2277 2478 2122 1856 1490 1176
259 59 0 0 8 268 665 957 954 845 859 576 340 159 111 0 0 0 0 14 25 118 380 651 878 1204 1488 1686 1854 2100 2289 2322 2495 2630 2502 2102 2299 2011 1984 2207 2108 1826 1278
854 535 266 285 719 694 1257 1276 1612 1399 1068 440 471 328 28 20 27 0 1 16 86 366 557 759 971 1156 1293 1455 1847 2147 2061 2110 2409 2710 2561 2228 2173 1755 1730 1749 1761 1733 1377
1104 794 973 853 914 1031 1428 1061 1050 1130 665 423 515 569 381 314 187 258 147 109 213 412 541 847 1152 1203 1249 1497 1947 2129 1925 1926 2000 2467 2661 2304 2071 1706 1348 1450 1787 1606 1289
1306 1371 1420 864 837 927 1225 1726 1355 1009 805 601 696 571 488 578 582 713 643 549 540 524 582 723 1030 1401 1500 1714 1938 1981 1749 1799 1845 2026 2456 2257 2096 1923 1063 772 1413 1692 1456
1675 1630 1619 755 268 1109 1626 1922 1788 1959 1402 939 847 861 593 503 683 786 859 785 883 652 683 660 961 1109 1404 1756 1827 1746 1569 1933 1943 1472 1762 2151 2033 2036 1125 559 1079 1685 1464
1213 1393 942 0 698 1411 1714 1829 2027 1865 966 579 971 1046 508 439 529 575 481 495 611 535 548 641 1414 1730 1904 2001 1299 1479 1909 1760 2017 1194 1038 1544 1871 2023 1296 522 841 1357 1413
1239 1419 1109 867 822 1077 1326 1817 1758 1685 1802 1396 1160 1091 408 337 321 351 468 447 445 338 241 196 452 1168 714 1126 1424 1320 1408 1397 1513 1285 726 827 1464 1774 1480 697 530 987 1255
909 1104 1193 943 983 836 1094 1485 1538 1702 1465 1466 1103 1303 1177 976 461 129 133 224 251 360 251 178 159 96 105 43 319 753 863 908 1057 834 579 634 774 1582 1847 1022 449 573 802
723 986 1255 931 1012 1076 1005 1586 1465 1512 1466 1497 881 377 303 251 199 353 110 4 82 154 169 228 68 59 15 0 11 283 544 902 1230 548 553 858 665 843 1764 1551 688 349 339
1096 912 874 1216 1152 990 934 1206 1340 1374 1397 1344 662 393 130 44 8 0 0 0 0 42 69 52 7 0 0 0 112 420 844 977 1250 826 331 758 617 562 1146 1698 1398 648 273
495 757 906 966 812 822 1003 935 1123 1125 1303 1127 1231 639 354 157 118 6 0 0 1 75 93 67 7 5 0 0 0 51 113 631 1137 1086 568 510 786 378 455 1133 1610 1569 1030
361 420 612 599 941 949 961 1236 1102 687 991 1060 1235 712 128 158 164 0 0 54 177 116 172 269 159 83 60 0 22 42 311 1081 1167 997 733 655 636 351 74 369 817 1267 1697
194 225 446 550 838 912 680 1168 804 1047 840 736 725 1075 522 259 201 283 156 173 199 80 209 232 128 177 168 159 245 412 426 697 1217 1127 828 752 523 429 35 70 209 341 434
14 187 458 410 718 690 906 944 942 922 874 668 955 1000 918 582 366 612 499 243 263 147 250 416 150 477 434 322 408 391 427 911 1222 1001 637 491 279 318 166 18 45 166 352
0 61 319 338 462 763 861 820 814 625 665 729 798 624 729 559 730 826 514 560 566 312 75 333 498 344 591 609 566 1133 1128 1381 1208 1015 1038 296 206 273 347 168 80 30 128
0 0 55 269 465 769 625 728 829 504 535 780 703 619 480 767 824 1093 901 867 826 668 229 280 481 737 572 213 170 1157 1401 1198 1049 980 1346 1169 1073 1053 916 718 665 237 23
0 24 68 239 354 772 727 581 610 912 325 397 434 573 625 701 730 558 648 713 554 543 384 366 433 667 658 611 532 676 811 1010 781 1068 1251 947 944 1114 1160 697 39 96 23
0 121 115 84 307 694 499 460 468 392 636 674 626 644 609 487 436 471 517 577 469 462 632 465 496 449 742 799 564 687 579 283 366 1073 1002 1033 1167 604 976 799 129 46 2
71 181 333 352 425 298 191 268 326 705 570 502 507 705 695 630 573 407 532 526 553 393 311 131 129 249 455 670 830 401 35 47 525 740 684 880 472 329 795 788 602 167 51
261 504 460 309 93 72 39 43 131 328 622 499 413 495 381 346 356 439 340 389 326 159 154 185 246 357 504 572 99 2 42 172 354 227 369 404 350 352 499 401 366 250 147
139 215 261 152 65 0 0 0 8 123 499 395 308 120 71 178 169 133 208 276 325 392 350 388 434 339 10 0 0 0 58 202 279 0 17 157 18 201 238 32 8 19 0
108 94 15 0 0 0 0 0 0 9 270 451 290 84 0 0 0 15 101 0 0 0 33 59 0 0 0 0 0 0 0 0 97 0 0 24 0 11 19 0 0 0 0
114 67 1 0 0 0 0 0 0 0 15 59 33 0 0 0 0 0 0 0 0 0 0 0 0 0 0 0 0 0 0 0 5 0 0 0 0 0 65 0 0 0 0
16 0 0 0 0 0 0 0 40 0 0 0 0 0 0 0 0 0 0 0 0 0 0 0 0 0 0 0 0 0 0 0 0 0 0 0 0 0 0 0 0 0 0
0 0 0 0 0 0 0 0 2 0 0 0 0 0 0 0 0 0 0 0 0 0 0 0 0 0 0 0 0 0 0 0 0 0 0 0 0 0 0 0 0 0 0

GFSMA_con_mlcape_117.txt.gz
CAPE
10 0 131 68 99 64 400 736 814 880 827 734 722 822 834 173 14 0 0 91 38 149 357 681 954 1278 1729 2099 2345 2477 2645 2564 2503 2574 2579 2261 2164 1511 1699 2070 1965 1617 1408
2 43 117 103 207 488 730 1006 1102 842 800 735 335 162 257 368 0 0 0 0 53 69 211 647 1055 1291 1571 1840 2029 2339 2461 2176 2324 2706 2574 2282 2018 1492 1505 1575 1659 1665 1176
730 624 477 618 771 872 1030 1065 880 1111 788 367 269 156 28 0 0 0 0 0 3 137 437 767 1160 1604 1743 1789 2076 2158 2124 1966 2108 2433 2756 2258 1886 1650 1320 1269 1491 1685 1225
986 803 637 692 740 1147 1093 1348 1006 813 504 311 441 448 96 3 10 13 9 5 2 78 213 512 761 919 1296 2114 2514 2051 1724 1642 1809 2157 2495 2322 1927 1675 961 932 1322 1522 970
1048 1020 1027 829 600 1178 1645 1687 1661 713 567 419 471 488 285 351 111 56 200 237 225 348 581 966 1149 1341 1471 1743 2176 1636 1847 1817 1842 1741 1918 2340 1958 1747 840 728 1210 1431 1077
1328 1429 1117 387 542 1374 1548 1884 1671 1391 722 579 574 645 513 238 242 395 498 607 740 820 931 1352 1530 1771 1812 2001 1376 1794 1827 1761 1671 1327 1195 1622 1958 1831 858 605 1105 1086 1232
1263 1329 119 132 1068 1241 1459 1778 1822 1609 1032 469 676 548 319 238 261 382 472 522 534 447 457 998 1335 1132 1437 1577 1397 1221 1392 1282 1262 1345 790 898 1676 1803 1063 418 1054 978 805
1276 1142 990 701 831 934 1313 1440 1562 1228 1006 757 1200 549 281 249 232 322 394 380 334 319 365 318 481 536 387 244 659 702 888 879 1067 994 707 796 963 1594 1367 468 678 1081 964
1047 1076 951 847 806 736 1112 1252 1389 1265 920 525 642 949 747 496 214 88 126 171 295 254 220 159 120 42 22 0 0 98 513 614 1192 1227 564 890 861 901 1643 938 349 712 1028
753 1040 982 833 839 912 1188 1343 1206 1200 1066 836 457 311 160 146 203 316 123 14 65 114 98 108 102 0 0 0 0 124 534 801 711 1161 767 512 958 585 1157 1594 647 302 462
886 1027 953 995 946 831 890 1145 1078 993 1091 588 480 282 93 8 0 11 35 1 0 0 84 136 59 11 9 0 0 6 28 238 431 1099 1241 734 573 665 426 1557 1529 626 235
561 885 764 925 896 716 925 880 879 1027 868 1071 572 321 201 131 110 0 0 3 7 13 112 202 187 74 12 0 15 144 321 460 724 855 1092 963 669 638 182 587 1533 1743 1109
283 402 633 724 772 795 783 924 919 666 872 836 732 312 72 147 57 0 0 97 189 47 214 266 160 98 155 201 187 283 459 583 716 990 929 658 619 464 235 56 444 1093 1720
162 222 373 553 512 897 547 761 733 926 715 685 626 737 180 101 87 185 160 145 135 24 64 207 132 326 567 463 539 626 780 782 998 775 428 440 363 303 233 0 36 181 398
76 119 343 445 543 682 768 783 865 725 675 550 720 700 592 325 138 344 341 73 213 46 56 274 201 298 539 600 846 997 975 930 910 1233 642 275 169 204 262 153 31 4 97
4 6 285 385 298 534 698 814 788 722 591 552 719 609 648 446 517 534 339 399 298 218 74 230 456 484 403 210 582 917 966 954 877 942 923 916 937 668 516 652 610 314 1
11 0 2 261 246 484 637 579 689 671 411 591 660 494 465 602 626 753 679 627 613 453 272 196 335 557 432 435 493 696 765 663 633 828 874 789 832 693 628 232 62 214 111
0 0 0 40 228 487 511 501 582 679 663 359 408 432 417 519 500 518 495 553 452 427 312 203 266 424 425 589 489 381 146 149 778 831 883 684 417 421 162 0 19 68 9
0 0 62 43 185 305 567 567 388 354 368 406 421 400 467 533 450 459 351 394 367 431 461 264 216 344 364 528 461 85 0 403 385 624 720 343 279 104 18 5 0 0 0
51 0 27 159 139 271 286 306 348 410 333 392 383 464 620 578 421 364 340 447 469 331 283 54 0 134 312 574 99 0 0 157 132 25 168 87 91 0 0 0 0 0 0
82 0 95 238 145 87 54 58 89 153 0 307 374 371 260 319 285 336 412 360 302 129 69 107 180 265 328 20 0 17 77 134 126 0 44 1 5 0 0 0 0 0 0
131 159 183 159 0 0 0 0 0 28 163 294 359 202 153 133 144 170 258 286 235 227 260 298 289 187 0 0 0 0 7 71 0 0 0 0 0 0 0 0 0 0 0
63 53 23 0 0 0 0 0 0 1 92 160 197 137 6 0 0 70 0 0 0 0 93 131 10 0 0 0 0 0 0 0 0 0 0 0 0 0 0 0 0 0 0
80 49 1 0 0 0 0 0 0 0 10 15 37 3 0 0 0 24 0 0 0 0 0 0 0 0 0 0 0 0 0 0 9 0 0 0 0 0 0 0 0 0 0
97 39 0 0 0 0 0 0 23 1 0 0 0 0 0 0 0 0 0 0 0 0 0 0 0 0 0 0 0 0 0 0 0 0 0 0 0 0 0 0 0 0 0
29 5 0 0 0 0 0 0 0 0 0 0 0 0 0 0 0 0 0 0 0 0 0 0 0 0 0 0 0 0 0 0 0 0 0 0 0 0 0 0 0 0 0

GFSMA_con_mlcape_120.txt.gz
CAPE
39 23 57 53 136 274 638 845 884 837 726 701 374 570 774 122 11 0 0 0 295 317 637 977 1394 1723 1977 2184 2274 2295 2458 2309 2196 2226 2304 2162 1978 1785 1319 1501 1783 1590 1340
0 70 237 307 423 683 784 860 876 1054 742 723 249 76 154 246 3 0 0 0 44 290 320 730 1181 1442 1796 2120 2397 2453 2201 1873 1909 1990 2153 2158 1983 1798 1236 1264 1688 1574 1177
537 576 573 595 741 964 1064 1175 937 759 634 339 196 140 34 17 0 0 0 0 0 15 338 790 917 1074 1237 1744 2478 2462 2042 1910 1853 1826 2017 2161 1998 1756 843 1171 1605 1268 940
851 733 667 719 964 1169 1570 1470 1119 642 268 288 353 367 19 0 0 0 4 2 14 108 222 526 938 1049 1400 1623 2235 1824 2045 1972 1689 1440 1350 2078 1938 1738 716 1058 1368 1106 774
889 953 941 687 902 1374 1659 1726 1328 538 390 316 387 378 255 311 302 246 490 366 400 578 781 945 1246 1513 1788 1859 1654 2024 1661 1585 1425 1179 1047 1652 1749 1680 688 913 1134 1030 727
1143 1334 778 424 1106 1366 1627 1559 1122 776 594 565 509 436 379 265 272 394 497 632 738 841 884 1297 1569 1658 2031 2012 1394 1571 1528 1378 1217 883 907 967 1582 1569 827 661 973 901 872
1207 591 22 596 1070 1218 1363 1453 1471 1045 749 453 661 361 297 299 365 402 436 464 512 477 427 886 1162 755 1052 1166 1095 971 994 1062 1618 945 826 907 1186 1422 1076 358 943 863 775
1042 919 547 691 793 1007 1172 1275 1187 992 642 616 1021 289 383 284 314 325 399 386 298 249 262 247 168 137 51 0 0 117 514 1105 1274 1394 822 871 879 1191 1165 535 506 956 708
986 910 659 583 598 790 1014 1072 1140 1093 601 429 437 804 627 408 283 169 183 175 242 265 235 174 143 75 17 0 0 174 610 488 635 1174 1402 718 944 739 1015 1020 296 503 821
763 953 816 693 729 688 1017 1036 1022 1017 899 532 342 226 203 209 363 376 215 98 85 109 102 68 38 44 5 0 0 0 128 540 703 919 1221 1341 686 746 676 1077 841 238 264
689 832 859 810 752 650 822 949 843 887 661 524 385 228 63 12 6 25 35 1 1 3 31 61 87 67 3 2 60 278 558 628 778 986 1002 1154 953 726 275 755 1158 865 294
585 756 764 804 782 622 783 740 735 816 734 777 382 254 153 107 116 0 3 49 59 65 106 134 117 67 119 196 414 605 754 846 952 946 631 636 590 485 221 59 755 1399 1230
366 445 643 560 647 619 652 783 697 622 680 629 524 209 66 112 29 0 6 67 153 85 154 230 166 459 587 630 805 843 873 945 897 459 324 437 276 195 161 18 34 488 1227
166 227 332 526 551 596 651 659 642 671 497 652 523 560 148 47 37 50 97 90 116 25 0 192 148 328 607 1026 1161 1011 1037 959 957 801 473 135 129 153 153 128 0 2 120
98 95 134 330 472 476 668 589 600 607 567 479 409 511 545 137 46 139 272 56 225 29 43 147 336 479 289 661 891 1105 1026 675 764 734 668 671 683 324 160 288 318 121 0
15 93 85 290 368 444 561 558 650 671 556 463 520 570 615 462 345 331 342 321 91 212 134 148 463 468 436 648 677 802 721 448 702 654 534 289 303 355 350 242 183 233 174
0 5 16 76 221 230 412 540 648 618 495 416 490 486 343 361 474 479 575 538 494 351 338 172 261 490 661 581 590 189 105 688 825 385 138 64 53 29 5 3 5 1 136
0 0 0 0 31 138 413 464 401 547 549 436 302 405 407 318 345 592 489 516 366 406 289 218 203 366 426 531 374 1 378 438 643 153 3 0 0 0 0 0 0 0 0
0 0 0 0 0 87 348 368 354 463 463 388 330 276 301 356 490 446 340 367 333 429 392 260 110 298 342 518 204 0 140 18 23 64 1 0 0 0 0 0 0 0 0
32 0 0 36 8 24 161 317 340 400 375 311 407 409 405 330 395 386 271 341 417 344 313 198 68 158 291 515 0 0 138 0 0 0 0 0 0 0 0 0 0 0 0
109 0 0 0 160 118 66 33 93 200 190 10 89 377 284 240 217 274 291 306 328 198 57 85 144 238 280 2 0 0 71 69 0 0 0 0 0 0 0 0 0 0 0
168 114 122 86 120 0 0 0 0 57 112 18 157 288 134 82 59 64 133 137 264 130 138 217 268 244 6 0 0 0 11 128 0 0 0 0 0 0 0 0 0 0 0
247 101 18 21 1 0 0 0 0 0 27 110 189 188 50 0 0 0 0 0 0 0 87 199 157 0 0 0 0 0 0 0 0 0 0 0 0 0 0 0 0 0 0
113 37 12 13 0 0 0 0 0 0 10 25 78 39 0 0 0 0 0 0 0 0 0 0 0 0 0 0 0 0 0 0 0 0 0 0 0 0 0 0 0 0 0
99 82 1 0 0 0 0 0 0 0 1 1 0 0 0 0 0 0 0 0 0 0 0 0 0 0 0 0 0 0 0 0 0 0 0 0 0 0 0 0 0 0 0
25 2 0 0 1 0 0 0 0 0 0 0 0 0 0 0 0 0 0 0 0 0 0 0 0 0 0 0 0 0 0 0 0 0 0 0 0 0 1 0 0 0 0

GFSMA_con_mlcape_123.txt.gz
CAPE
204 221 205 445 783 1102 1362 1623 1722 1733 1502 1387 743 1200 1093 523 146 3 3 0 178 517 659 928 1212 1499 1702 1873 2155 2451 2611 2277 2065 1998 2027 2059 1890 1827 1433 1349 1611 1658 1337
57 452 791 897 1138 1456 1693 1709 1537 1597 1338 982 525 475 766 506 199 6 10 38 0 181 493 736 1042 1311 1484 1896 2371 2621 2171 1944 1997 1777 1781 2002 1938 1644 1031 1434 1580 1391 1164
1102 1153 1093 1198 1539 1716 2141 2008 1530 1416 882 649 620 399 465 209 81 11 8 45 146 94 315 665 895 1080 1205 1682 2355 2085 2006 1805 1552 1352 1409 1900 1977 1455 934 1325 1307 1010 858
1382 1194 1159 1514 1729 2311 2481 2203 1388 1047 758 962 991 780 344 281 353 291 434 527 686 788 828 793 861 1287 1646 2030 2262 2032 1788 1519 1299 1045 1036 1734 1900 1306 884 1230 1177 704 503
1405 1519 1473 1180 1710 2316 2494 2269 1436 1141 775 835 875 905 731 847 864 822 1144 1254 1218 1297 1628 1705 1637 1778 2066 2114 1818 1974 1638 1482 1128 1028 984 1381 1694 1250 722 1165 1068 683 471
1734 1806 1177 1027 1948 2233 2443 1966 1503 1270 1291 1237 862 941 926 826 854 1000 1028 1187 1407 1492 1490 1792 2267 1937 1965 1844 1537 1386 1331 1457 1330 933 1066 980 1460 1315 551 1114 1006 725 570
1910 1481 859 1278 1792 1861 2094 2214 2000 1456 1195 1163 956 878 808 833 958 967 1076 1085 1172 1078 1044 1261 1591 1265 880 144 74 200 584 1374 1606 1282 910 1006 960 1433 584 827 1082 819 568
1676 1626 931 1380 1357 1795 1916 1942 1834 1421 1172 1303 1774 883 949 816 851 847 1037 1070 1080 909 849 802 780 639 536 365 100 297 733 490 1090 1491 1428 830 847 1289 938 450 884 873 661
1568 1495 1168 1238 1193 1524 1803 1849 1924 1691 1058 848 1037 1729 1034 737 860 662 727 635 590 677 720 733 613 633 399 263 183 250 82 559 809 1194 1567 1368 787 763 1117 660 452 713 715
1523 1571 1385 1295 1390 1426 1707 1700 1801 1683 1471 1009 759 566 603 709 752 762 701 534 520 331 309 282 433 588 414 294 114 278 337 613 807 1202 1341 1274 925 730 675 885 574 337 411
1358 1368 1327 1343 1280 1305 1545 1581 1566 1639 1341 1190 884 594 365 226 201 302 267 175 363 167 250 498 734 725 765 832 1042 1123 660 853 951 907 750 742 723 580 272 657 644 536 343
1142 1429 1369 1535 1213 1274 1187 1370 1389 1464 1432 1446 873 634 570 491 474 218 220 415 387 547 591 720 839 1139 1269 1437 1122 817 839 762 525 355 429 429 499 445 259 413 785 854 667
741 1006 1063 1091 911 1265 1172 1282 1358 1319 1352 1266 1171 746 485 531 351 187 229 417 466 527 655 944 1058 1330 1614 2024 1857 1299 962 880 673 467 186 240 274 223 260 110 180 789 1273
729 829 808 712 758 828 1317 1420 1336 1271 1117 1201 1291 1260 810 479 431 445 524 604 414 570 392 705 903 1244 1590 1751 1373 1542 1387 701 634 522 536 459 196 156 192 227 155 51 148
483 486 545 705 988 1104 748 1134 983 1079 1182 1237 1067 1022 1069 915 416 545 778 645 673 206 137 578 813 1298 1106 1558 1082 1771 1298 502 325 183 131 131 163 212 196 243 280 259 31
267 274 389 502 778 1051 1184 1166 1126 1258 1235 1193 868 1172 1153 1187 995 834 824 896 679 586 47 469 878 1307 1458 1194 699 961 725 899 34 2 0 0 0 0 9 10 17 59 202
203 48 224 380 533 783 969 856 747 959 1114 1014 1090 1000 1132 1103 873 1082 1200 1100 1072 999 620 600 762 1263 1148 1267 1192 804 1152 1292 0 0 0 0 0 0 0 0 0 0 5
259 254 112 89 115 443 740 690 626 802 790 925 975 941 926 835 858 883 885 937 910 965 847 875 674 651 551 1007 661 994 782 845 0 0 0 0 0 0 0 0 0 0 0
188 118 0 0 7 29 267 719 878 603 549 656 915 913 597 939 757 854 719 936 681 1078 852 456 646 709 947 1092 431 622 283 211 101 0 0 0 0 0 0 0 0 0 0
244 147 44 0 10 193 233 492 799 567 630 662 467 364 555 504 340 406 503 476 419 460 612 699 596 342 700 1180 140 469 192 32 185 0 0 0 0 0 0 0 0 0 0
324 306 144 67 100 480 316 315 467 445 363 690 670 698 890 446 186 273 509 428 372 376 250 197 367 602 818 232 122 239 611 0 0 30 0 0 0 0 0 0 0 0 0
561 433 291 219 223 246 0 0 0 157 292 422 174 227 489 109 118 23 84 161 334 383 242 298 550 586 739 55 32 91 333 319 1 0 0 0 0 0 0 0 0 0 0
470 381 451 432 225 70 0 0 0 0 115 186 401 254 315 119 25 142 0 0 0 0 31 511 310 470 137 21 28 46 215 93 0 0 6 0 0 0 0 0 0 0 0
173 330 387 133 14 0 0 0 0 0 3 112 96 306 329 27 4 19 0 0 0 0 0 0 2 18 8 7 19 117 247 0 0 0 0 1 0 0 0 0 0 0 0
101 74 67 99 67 8 0 0 0 0 0 0 0 0 1 22 0 0 0 0 0 0 0 0 0 0 0 0 0 34 39 150 63 0 0 0 0 0 0 0 0 0 0
99 44 6 4 0 0 1 0 0 0 0 0 0 0 0 0 0 0 0 0 0 0 0 0 0 0 0 0 0 0 0 0 0 0 0 0 0 0 0 0 0 0 0

GFSMA_con_mlcape_126.txt.gz
CAPE
660 699 1238 1327 1671 1694 1659 1773 1816 1675 1481 765 728 690 434 429 389 411 577 0 97 415 654 798 1015 1348 1703 1827 2187 2563 2229 2261 2018 1807 1857 2254 2161 1527 1114 1448 1772 1519 1175
821 1308 1530 1370 1714 1876 1800 1818 1847 1288 866 457 530 660 526 607 531 521 646 693 89 176 503 855 1176 1429 1509 1667 2024 2376 1957 1906 1653 1260 1444 2030 2140 1138 1313 1726 1481 1342 1094
1868 2145 1472 1601 1875 2282 2791 2194 1760 1467 667 381 730 948 882 710 718 769 843 962 928 523 500 570 836 1102 1495 1702 2083 2058 1746 1516 1279 1012 1153 1750 1994 944 1360 1526 1102 1044 964
2082 1989 1478 1711 2492 2507 2361 1786 1088 834 757 471 796 698 815 950 1238 1248 1413 1652 1591 1419 1351 1352 1385 1524 1892 2068 2249 2106 1777 1674 1158 1012 1005 1588 1837 848 1295 1261 866 744 823
1797 1815 1595 1850 2788 2437 2287 1320 1109 754 795 617 486 764 958 1009 1138 1053 1517 1780 1853 2003 2041 2054 2013 1987 2253 2323 1935 1814 1539 1568 1354 965 1021 1281 1617 821 1234 1100 773 673 606
2005 2079 1374 2000 2538 1989 1912 1906 1755 1611 1263 914 481 661 874 922 1051 1091 1124 1307 1685 2011 1861 2177 2334 2125 1317 1120 735 459 871 1307 1628 1166 1025 936 1293 959 1048 1042 755 676 521
2035 2031 1436 1669 2193 1816 2880 2454 1965 1934 1508 1876 1220 1042 1105 1233 1082 1139 1263 1297 1612 1660 1684 1733 1847 1625 1048 417 302 167 409 989 1234 1653 1141 960 944 1062 572 1093 784 630 495
1850 1969 1743 1699 2004 1737 2409 2852 2601 1338 1488 1969 1828 1010 850 856 720 1038 1317 1482 1644 1477 1288 1229 1342 1403 1329 668 340 244 328 386 996 1323 1846 863 721 885 614 891 941 757 489
1495 2179 1979 1891 1910 1871 1445 2158 2454 2307 1144 1550 2135 2021 1017 813 920 1261 1253 1259 1323 1122 1021 967 776 817 1014 864 518 669 338 509 727 1112 1594 1499 673 446 939 451 787 770 615
1655 1837 1688 1947 2013 1591 1950 1678 1898 2386 2079 1248 1266 1223 1432 1236 807 613 958 681 787 650 468 694 676 703 763 784 635 694 427 647 910 1078 1247 1240 763 286 689 639 399 626 664
1608 1653 1737 1763 1777 1339 1970 1827 1738 2253 1892 1566 1127 1107 1270 770 713 588 322 406 726 479 756 901 1085 1290 1550 1657 1528 1208 795 809 446 446 627 687 839 584 471 751 603 341 366
791 1313 1493 1671 1878 1436 1604 1665 1836 1887 1645 1836 1458 1269 865 666 588 452 375 504 408 716 933 1113 1238 1070 1211 1611 1571 1073 805 643 407 123 239 384 413 630 628 786 895 818 533
743 828 1177 1137 867 803 858 1386 1679 1573 1662 1518 1855 1197 939 977 779 632 453 329 327 283 598 779 796 1114 1432 1398 1682 1442 766 584 394 350 289 144 158 208 292 283 545 1255 1457
768 919 1167 1123 1065 1143 1157 1316 1164 1195 1181 1174 1567 1705 948 628 723 675 550 318 4 223 253 584 731 811 979 1473 1438 1481 1221 224 131 81 56 83 137 193 134 125 178 76 408
944 1304 1339 1305 1150 1127 1229 1107 1241 1178 1265 1278 859 1172 1137 515 572 372 472 376 240 2 48 853 223 1324 1045 1335 813 1790 1453 0 0 0 0 0 0 0 7 42 70 248 30
1110 979 1002 1031 1144 1151 1221 1345 876 1051 1243 1084 705 612 1160 391 693 622 538 457 372 185 3 206 204 876 1446 1086 931 1352 1222 0 0 0 0 0 0 0 0 0 4 30 48
1142 1173 952 850 1088 1273 1191 1380 1292 814 1032 1156 1200 1002 1089 1095 609 363 424 359 293 349 138 39 432 1178 1077 1246 1085 1318 1390 226 0 0 0 0 0 0 0 0 0 0 0
1212 1160 920 971 1010 1020 1123 1268 1066 747 864 881 912 868 1006 849 997 1065 448 276 369 634 448 573 650 527 903 1166 1235 1346 883 0 0 0 0 0 0 0 0 0 0 0 0
1038 966 970 868 601 544 623 968 1120 881 879 826 883 931 951 994 917 610 759 667 629 824 1106 900 563 725 611 685 1011 1007 937 272 0 0 0 0 0 0 0 0 0 0 0
890 934 954 717 422 296 372 411 736 970 982 785 834 829 754 797 910 907 616 767 667 888 652 751 681 316 280 1038 590 681 507 234 0 0 0 0 0 0 0 0 0 0 0
696 877 1050 889 647 551 652 683 841 954 847 769 732 831 458 713 338 426 561 687 510 394 397 456 175 205 355 621 282 464 421 141 498 0 0 0 0 0 0 0 0 0 0
843 890 908 941 732 456 59 176 182 719 832 831 823 824 730 333 150 92 81 112 186 434 640 426 206 246 668 692 180 158 659 199 10 33 0 0 0 0 0 0 0 0 0
674 588 786 777 509 602 39 0 0 167 464 682 727 828 825 494 263 810 91 27 4 20 93 503 605 549 761 375 166 218 453 724 352 10 3 0 0 0 0 0 0 0 0
84 202 374 426 529 853 0 0 0 12 80 263 638 701 866 812 494 578 351 228 109 17 24 40 78 356 247 180 197 278 500 231 0 0 0 25 0 0 0 0 0 0 0
102 85 76 102 280 267 0 0 0 27 6 23 26 17 197 356 0 0 224 128 69 0 0 0 0 0 0 0 2 74 159 127 139 13 0 0 0 0 0 0 0 0 0
91 62 38 42 7 0 0 0 0 0 1 0 0 0 0 0 0 0 124 78 15 0 0 0 0 0 0 0 0 0 49 24 28 16 0 0 0 0 0 0 0 0 0

GFSMA_con_mlcape_129.txt.gz
CAPE
811 944 1391 1412 1165 1112 871 1041 1380 1370 1002 720 778 570 384 414 398 511 579 230 366 532 753 963 1191 1526 1845 1857 2071 2449 2024 1964 1468 1329 1652 1793 2152 1394 1789 1607 1585 1388 1407
1129 1253 1296 1114 1099 1235 1130 1198 1627 1264 629 341 677 530 512 560 701 664 768 681 487 563 647 801 996 1181 1351 1752 2084 2161 1737 1690 1348 1212 1537 1766 1845 1359 1596 1412 1267 1220 1661
1828 1954 976 1546 1115 1285 1819 1567 1588 1143 456 371 807 911 666 568 756 1034 983 1063 973 838 885 977 1207 1349 1605 2068 2333 2146 1826 1820 1295 1183 1529 1801 1647 1357 1424 1115 1055 1043 1432
2003 2199 1331 1272 1019 1702 1528 1248 1205 891 401 441 680 687 647 759 1189 1408 1408 1595 1429 1403 1241 1517 1695 1746 2226 2358 2378 2100 1827 1660 1449 1127 1207 1694 1458 1170 1300 976 935 935 1102
1662 2257 1137 1507 2437 1725 1171 743 763 732 615 425 525 694 770 809 886 897 1005 1316 1532 1941 1971 2106 2172 2167 2106 2149 1476 1187 1145 1110 1836 1169 1134 1378 1333 856 1216 952 785 816 725
1580 2147 843 2145 1310 1529 1111 2011 1645 1192 1052 515 619 412 629 673 654 659 677 822 1265 1759 1701 1995 2323 2554 1277 695 226 292 175 984 1439 1827 1094 1073 1259 656 1052 929 771 653 628
1605 1842 1345 1164 1275 1561 2343 2077 1894 1694 1318 1433 885 567 579 569 526 506 599 638 1058 1461 1585 1654 1898 1678 1297 661 481 299 413 697 1076 1607 1916 954 1001 720 738 833 766 596 487
1568 1738 1726 1501 1751 1768 2290 2518 2498 2374 1199 1427 1753 892 650 825 339 384 603 648 1129 1381 1346 1327 1250 1169 1437 1119 539 440 233 413 934 1253 1706 1650 793 932 447 834 720 619 418
1490 1835 1680 1959 1780 1582 1959 1889 2382 1949 1479 1124 1480 1489 1445 93 0 752 1103 1048 1247 894 860 836 744 1035 1009 1018 857 836 452 504 919 1228 1466 1657 996 646 658 573 800 639 428
1401 1498 1640 1718 1849 2279 1842 1495 1819 2017 1553 1780 1084 988 1439 1270 622 545 584 386 628 405 692 874 843 1327 1717 1201 1153 1095 708 762 574 550 897 1140 1309 674 708 475 580 689 560
1510 1344 1616 1707 1864 1459 1948 1909 1584 1877 1951 1374 1456 980 1404 597 645 504 137 178 747 430 571 821 863 782 1584 1409 1187 1026 675 623 338 241 454 632 876 716 577 817 442 424 639
1126 1211 1556 1480 1648 1638 1685 1630 1989 1549 1664 2117 1463 1196 585 494 415 350 241 184 111 521 121 891 332 237 190 1640 1332 839 683 478 350 297 205 360 488 601 670 861 1058 643 417
486 1454 1426 1648 1336 1548 1207 1418 1853 1779 1616 1165 2121 981 456 183 261 173 79 87 62 68 278 292 135 254 343 1298 1465 1095 187 117 63 29 26 101 202 233 234 330 711 1348 1237
707 1300 1368 1285 1418 1324 1194 1260 1075 1276 1251 1346 1418 1403 1068 426 197 149 52 43 22 6 226 668 163 148 262 750 1306 349 476 0 0 0 0 0 0 3 34 81 181 237 1258
720 1132 1249 1257 1443 1340 1375 1025 1077 1134 1015 1256 925 1093 1020 313 121 256 159 120 73 20 76 573 82 1120 832 361 533 1284 51 0 0 0 0 0 0 0 0 0 0 82 77
1308 1369 1161 1209 1288 1228 1235 1456 1096 980 1049 786 695 859 695 232 278 344 178 146 288 82 34 26 44 867 873 1230 809 1262 121 0 0 0 0 0 0 0 0 0 0 20 16
1415 1408 1412 1509 1211 1248 1481 1461 1312 1314 1190 1309 1098 882 934 931 504 93 940 180 105 89 272 40 755 1757 1445 1088 1196 1310 870 11 0 0 0 0 0 0 0 0 0 0 0
1288 1440 1352 1402 1420 1298 1213 1421 1418 1193 875 939 807 833 950 689 948 1364 675 385 25 632 404 740 638 564 1120 1178 1091 1372 699 0 0 0 0 0 0 0 0 0 0 0 0
1129 984 1190 1313 1496 975 893 1088 1308 1199 1023 1027 602 690 782 929 998 834 950 1016 826 654 956 578 468 714 560 571 1329 1055 1054 26 0 0 0 0 0 0 0 0 0 0 0
1075 1057 1007 1044 1087 1073 720 747 698 862 1004 996 993 1007 1074 1016 841 850 815 715 743 553 984 360 251 625 647 461 466 521 706 720 0 0 0 0 0 0 0 0 0 0 0
979 1041 945 997 992 1047 647 709 823 811 1151 975 931 933 1006 925 433 461 819 740 724 773 526 389 583 161 190 275 496 402 462 577 180 206 5 0 0 0 0 0 0 0 0
1331 1328 1065 1038 977 695 67 191 352 467 734 913 946 1112 1091 773 448 166 94 108 223 151 302 423 171 355 168 819 275 314 536 362 294 312 3 0 0 0 0 0 0 0 0
1076 1104 1103 1159 1058 831 163 90 73 235 341 521 566 742 955 598 497 733 139 74 71 67 102 516 463 624 1010 1260 890 582 410 791 700 119 2 0 0 0 0 0 0 0 0
873 912 1129 540 351 427 96 44 10 89 367 437 503 704 682 835 573 427 822 709 622 61 30 57 224 425 148 195 514 319 456 924 261 157 84 48 0 0 0 0 0 0 0
825 700 700 375 180 115 1 0 0 56 177 190 183 22 3 77 4 12 109 359 201 21 0 0 0 0 0 0 1 36 160 187 181 65 16 70 12 0 0 0 0 0 0
227 366 409 276 94 0 1 0 0 0 19 34 0 0 0 0 0 0 80 330 199 103 0 0 0 0 0 0 0 0 0 54 70 41 0 0 0 0 0 0 0 0 0